This is the latest recevied weather packets stored in our database for station/object IU7URP-13. If no packets are shown the sender has not sent any weather packets the latest 10 day(s).
| Time | Temp. | Humidity | Pressure | Rain* | Wind** | Luminosity | Snow |
|---|---|---|---|---|---|---|---|
| 1777769968 | 10.56° C | 99% | 1021.4 hPa | - | - | - | - |
| 1777768767 | 11.11° C | 99% | 1021.4 hPa | - | - | - | - |
| 1777767565 | 11.11° C | 99% | 1021.5 hPa | - | - | - | - |
| 1777766364 | 11.11° C | 99% | 1021.8 hPa | - | - | - | - |
| 1777765163 | 11.11° C | 99% | 1022.1 hPa | - | - | - | - |
| 1777763961 | 11.67° C | 99% | 1022.1 hPa | - | - | - | - |
| 1777762760 | 12.22° C | 99% | 1022.5 hPa | - | - | - | - |
| 1777761559 | 11.67° C | 99% | 1022.7 hPa | - | - | - | - |
| 1777760357 | 12.22° C | 99% | 1022.9 hPa | - | - | - | - |
| 1777759156 | 12.22° C | 99% | 1022.9 hPa | - | - | - | - |
| 1777757955 | 12.22° C | 99% | 1022.9 hPa | - | - | - | - |
| 1777756754 | 12.78° C | 99% | 1022.9 hPa | - | - | - | - |
| 1777755552 | 12.22° C | 99% | 1022.9 hPa | - | - | - | - |
| 1777754351 | 12.22° C | 99% | 1023 hPa | - | - | - | - |
| 1777753149 | 12.22° C | 99% | 1023.1 hPa | - | - | - | - |
| 1777751948 | 12.78° C | 99% | 1023.1 hPa | - | - | - | - |
| 1777751189 | 12.78° C | 99% | 1023.1 hPa | - | - | - | - |
| 1777749988 | 12.78° C | 99% | 1023 hPa | - | - | - | - |
| 1777748787 | 12.78° C | 99% | 1022.7 hPa | - | - | - | - |
| 1777747585 | 13.33° C | 99% | 1022.5 hPa | - | - | - | - |
| 1777746384 | 13.33° C | 99% | 1022.3 hPa | - | - | - | - |
| 1777746329 | 13.33° C | 99% | 1022.2 hPa | - | - | - | - |
| 1777745128 | 13.89° C | 99% | 1022.1 hPa | - | - | - | - |
| 1777743917 | 14.44° C | 99% | 1021.8 hPa | - | - | - | - |
| 1777742716 | 15.56° C | 78% | 1021.5 hPa | - | - | - | - |
* Rain since midnight (hover to see other rain measurements)
** Current wind speed in m/s (hover to see current wind gust speed)